sat.trackr.live / text

‹ back to catalog

2024-016D

NORAD 58823 · 2024-016D

PAYLOAD ACTIVE UNKNOWN

§ Identity

Operator
Country
PRC
Launch date
2024-01-23
Launch site
JSC
Launch vehicle
Mass (kg)
RCS (m²)

External: N2YO · Heavens-Above · Gunter

§ Orbital elements

Epoch: 2026-05-25T05:15:57.691872Z

Period
92.86 min
Inclination
97.4321°
Eccentricity
0.0007581
Mean motion
15.50658093 rev/d
Perigee alt
409.7 km
Apogee alt
420.0 km
Semi-major
6,792.9 km
B*
7.3703e-4
RAAN
234.4363°
Arg perigee
152.5417°
Mean anomaly
207.6237°
Rev number
13,021

§ Raw data

2024-016D1 58823U 24016D   26145.21941773  .00042388  00000+0  73703-3 0  99982 58823  97.4321 234.4363 0007581 152.5417 207.6237 15.50658093130211

JSON: /api/v1/satellites/58823 · /tle

For live sub-satellite position, see the globe view (requires WebGL).

§ Visibility from observer

Set your observer location to see the next 7 days of passes ≥ 10°. The values pass through the URL so the page stays shareable.

No JS? Fill the form by hand. The geolocation button needs JavaScript.